This is the latest recevied weather packets stored in our database for station/object TA2NC-13. If no packets are shown the sender has not sent any weather packets the latest 10 day(s).
| Time | Temp. | Humidity | Pressure | Rain* | Wind** | Luminosity | Snow |
|---|---|---|---|---|---|---|---|
| 1778070001 | 15° C | 51% | 1017 hPa | 0 mm | - | - | - |
| 1778069401 | 15° C | 50% | 1017 hPa | 0 mm | - | - | - |
| 1778068801 | 14.44° C | 52% | 1017 hPa | 0 mm | - | - | - |
| 1778068200 | 15° C | 50% | 1017 hPa | 0 mm | - | - | - |
| 1778067983 | 15° C | 54% | 1017 hPa | 0 mm | - | - | - |
| 1778067601 | 13.89° C | 53% | 1017 hPa | 0 mm | - | - | - |
| 1778067001 | 13.89° C | 54% | 1017 hPa | 0 mm | - | - | - |
| 1778066401 | 13.89° C | 55% | 1017 hPa | 0 mm | - | - | - |
| 1778065801 | 13.89° C | 51% | 1017 hPa | 0 mm | - | - | - |
| 1778065200 | 13.33° C | 57% | 1017 hPa | 0 mm | - | - | - |
| 1778064601 | 12.78° C | 57% | 1017 hPa | 0 mm | - | - | - |
| 1778064001 | 13.33° C | 58% | 1017 hPa | 0 mm | - | - | - |
| 1778063400 | 12.78° C | 55% | 1017 hPa | 0 mm | - | - | - |
| 1778062801 | 12.78° C | 56% | 1017 hPa | 0 mm | - | - | - |
| 1778062201 | 13.33° C | 54% | 1017 hPa | 0 mm | - | - | - |
| 1778061600 | 13.33° C | 57% | 1017 hPa | 0 mm | - | - | - |
| 1778061000 | 13.33° C | 57% | 1017 hPa | 0 mm | - | - | - |
| 1778060400 | 12.78° C | 58% | 1017 hPa | 0 mm | - | - | - |
| 1778059801 | 12.22° C | 59% | 1017 hPa | 0 mm | - | - | - |
| 1778059200 | 12.22° C | 56% | 1017 hPa | 0 mm | - | - | - |
| 1778058601 | 12.22° C | 61% | 1017 hPa | 0 mm | - | - | - |
| 1778058001 | 12.22° C | 61% | 1017 hPa | 0 mm | - | - | - |
| 1778057400 | 11.67° C | 61% | 1017 hPa | 0 mm | - | - | - |
| 1778056800 | 12.22° C | 59% | 1017 hPa | 0 mm | - | - | - |
| 1778056200 | 12.22° C | 62% | 1017 hPa | 0 mm | - | - | - |
* Rain latest hour (hover to see other rain measurements)
** Current wind speed in m/s (hover to see current wind gust speed)